Location: Amsterdam
(30.7274°N, 84.4357°W)
Time: 02:46:31
(UTC+00:00)

Courier 1B Rocket - Pass Details

Date: 16 February 2026
Orbit: 920 x 1201 km, 28.2° (Epoch: 7 March)

Event Time Altitude Azimuth Distance (km) Brightness Sun altitude
Rises 04:00:28 0° 269° (W) 3,631 - -58.4°
Reaches altitude 10° 04:03:02 10° 267° (W) 2,717 - -58.9°
Maximum altitude 04:09:36 72° 184° (S) 1,074 - -60.1°
Drops below altitude 10° 04:16:42 10° 102° (ESE) 2,919 - -61.4°
Sets 04:19:33 0° 100° (E) 3,919 - -61.9°
